sat.trackr.live / text

‹ back to catalog

STARLINK-33553

NORAD 62108 · 2024-220W

PAYLOAD ACTIVE UNKNOWN

§ Identity

Operator
Country
US
Launch date
2024-11-25
Launch site
AFETR
Launch vehicle
Mass (kg)
RCS (m²)

Purposes: comms

External: N2YO · Heavens-Above · Gunter

§ Orbital elements

Epoch: 2026-05-25T00:15:11.024928Z

Period
94.27 min
Inclination
42.9999°
Eccentricity
0.0000850
Mean motion
15.27596375 rev/d
Perigee alt
482.4 km
Apogee alt
483.6 km
Semi-major
6,861.1 km
B*
5.3283e-4
RAAN
134.5109°
Arg perigee
272.0381°
Mean anomaly
88.0373°
Rev number
8,486

§ Raw data

STARLINK-335531 62108U 24220W   26145.01054427  .00014436  00000+0  53283-3 0  99992 62108  42.9999 134.5109 0000850 272.0381  88.0373 15.27596375 84865

JSON: /api/v1/satellites/62108 · /tle

For live sub-satellite position, see the globe view (requires WebGL).

§ Visibility from observer

Set your observer location to see the next 7 days of passes ≥ 10°. The values pass through the URL so the page stays shareable.

No JS? Fill the form by hand. The geolocation button needs JavaScript.